FW2709 Weather Reports


time (UTC)temp
F
wind
direction
speed
knots
gust
knots
rain 1hr
in
rain 24hr
in
rain mn
in
humidity
%
barometer
mb
20260509044609 43 254 0.0 0.0 0.00 0.00 0.01 65 1005.2
20260509043049 43 253 0.0 0.0 0.00 0.00 0.01 67 1005.4
20260509041519 43 261 0.9 0.0 0.00 0.00 0.01 64 1005.0
20260509040040 44 250 0.9 0.0 0.00 0.00 0.01 64 1005.3
20260509034517 44 251 0.0 0.0 0.00 0.00 0.01 60 1004.9
20260509033111 45 247 0.0 0.0 0.00 0.00 0.01 59 1004.9
20260509031542 46 251 0.0 0.0 0.00 0.00 0.01 59 1004.3
20260509030109 47 247 0.9 0.0 0.00 0.00 0.01 59 1005.3
20260509024559 48 299 0.0 0.0 0.00 0.00 0.01 57 1004.7
20260509023029 49 37 0.9 0.0 0.00 0.00 0.01 55 1004.0
20260509021508 50 34 0.0 0.0 0.00 0.00 0.01 54 1003.8
20260509020024 51 37 0.0 0.0 0.00 0.00 0.01 53 1004.4
20260509014501 52 34 0.0 0.0 0.00 0.00 0.01 52 1003.6
20260509013055 53 0 0.9 0.0 0.00 0.00 0.01 51 1003.6
20260509011519 54 174 0.9 0.0 0.00 0.00 0.01 49 1003.3
20260509010034 55 171 3.5 0.0 0.00 0.00 0.01 50 1005.6
20260509004504 56 133 0.0 0.0 0.00 0.00 0.01 37 1005.2
20260509003052 57 62 0.0 0.0 0.00 0.00 0.01 36 1005.1
20260509001524 58 59 0.9 0.0 0.00 0.00 0.01 34 1004.5
20260509000047 58 64 0.9 0.0 0.00 0.00 0.01 30 1005.4
20260508234520 58 52 0.9 0.0 0.00 0.00 0.01 32 1005.1
20260508233107 59 28 0.9 0.0 0.00 0.00 0.01 32 1004.5
20260508231557 60 66 0.9 0.0 0.00 0.00 0.01 30 1004.4
20260508230007 61 66 1.7 0.0 0.00 0.00 0.01 28 1004.1
20260508224611 60 20 1.7 0.0 0.00 0.00 0.01 30 1004.0
20260508223032 61 68 1.7 0.0 0.00 0.00 0.01 31 1003.5
20260508221516 60 90 1.7 0.0 0.00 0.00 0.01 30 1004.1
20260508220035 60 69 1.7 0.0 0.00 0.00 0.01 30 1004.6
20260508214611 61 49 1.7 0.0 0.00 0.00 0.01 36 1004.6
20260508213041 59 73 1.7 0.0 0.00 0.00 0.01 31 1004.9
20260508211503 59 117 0.9 0.0 0.00 0.00 0.01 36 1004.7
20260508210020 59 23 2.6 0.0 0.00 0.00 0.01 31 1006.1
20260508204603 59 35 2.6 0.0 0.00 0.00 0.01 35 1005.7
20260508203048 59 359 1.7 0.0 0.00 0.00 0.01 31 1006.3
20260508201524 59 25 2.6 0.0 0.00 0.00 0.01 28 1005.9
20260508200109 59 326 2.6 0.0 0.00 0.00 0.01 32 1005.2
20260508194533 60 359 3.5 0.0 0.00 0.00 0.01 32 1005.4
20260508193107 59 44 1.7 0.0 0.00 0.00 0.01 33 1005.6
20260508191535 59 11 2.6 0.0 0.00 0.00 0.01 30 1006.5
20260508190056 59 51 1.7 0.0 0.00 0.00 0.01 33 1005.8
20260508184523 58 322 2.6 0.0 0.00 0.00 0.01 33 1006.4
20260508183051 56 161 1.7 0.0 0.00 0.00 0.01 35 1007.2
20260508181508 55 17 1.7 0.0 0.00 0.00 0.01 37 1007.3
20260508180023 55 44 1.7 0.0 0.00 0.00 0.01 35 1007.6
20260508174607 55 23 1.7 0.0 0.00 0.00 0.01 35 1007.7
20260508173029 54 64 0.9 0.0 0.00 0.00 0.01 39 1008.1
20260508171608 54 147 0.9 0.0 0.00 0.00 0.01 35 1008.5
20260508170012 53 147 0.9 0.0 0.00 0.00 0.01 40 1007.2
20260508164558 53 167 0.9 0.0 0.00 0.00 0.01 37 1007.2
20260508163030 53 140 0.9 0.0 0.00 0.00 0.01 41 1007.2
20260508161511 53 62 0.9 0.0 0.00 0.00 0.01 37 1007.3
20260508160100 53 75 0.9 0.0 0.00 0.00 0.01 37 1007.5
20260508154528 53 79 0.9 0.0 0.00 0.00 0.01 40 1007.1
20260508153049 53 229 0.9 0.0 0.00 0.00 0.01 38 1007.1
20260508151529 50 34 0.9 0.0 0.00 0.00 0.01 41 1008.4
20260508150125 50 90 0.9 0.0 0.00 0.00 0.01 45 1006.9
20260508144546 50 104 0.9 0.0 0.00 0.00 0.01 51 1006.6
20260508143034 48 117 0.9 0.0 0.00 0.00 0.01 53 1006.7
20260508141608 47 112 0.0 0.0 0.00 0.00 0.01 58 1007.2
20260508140034 47 96 0.9 0.0 0.00 0.00 0.01 63 1007.4
20260508134558 44 96 0.9 0.0 0.00 0.00 0.01 69 1008.4
20260508133018 41 55 0.0 0.0 0.00 0.00 0.01 75 1008.9
20260508131559 39 354 0.0 0.0 0.00 0.00 0.01 80 1009.4
20260508130106 37 359 0.9 0.0 0.00 0.00 0.01 82 1009.2
20260508124538 36 288 0.0 0.0 0.00 0.00 0.01 85 1009.8
20260508123012 36 261 0.9 0.0 0.00 0.00 0.01 86 1009.1
20260508121552 36 257 0.9 0.0 0.00 0.00 0.01 87 1010.0
20260508114544 35 349 1.7 0.0 0.00 0.00 0.01 85 1009.8
20260508113039 35 288 0.9 0.0 0.00 0.00 0.01 78 1009.0
20260508111506 37 176 0.9 0.0 0.00 0.00 0.01 72 1007.6
20260508110030 37 181 0.9 0.0 0.00 0.00 0.01 72 1006.5
20260508104507 36 174 0.9 0.0 0.00 0.00 0.01 76 1006.5
20260508103105 35 62 0.9 0.0 0.00 0.00 0.01 84 1007.2
20260508101517 34 155 0.9 0.0 0.00 0.00 0.01 86 1007.8
20260508100036 35 174 0.0 0.0 0.00 0.00 0.01 85 1006.5
20260508094517 34 175 0.9 0.0 0.00 0.00 0.01 83 1007.0
20260508093102 34 176 0.9 0.0 0.00 0.00 0.00 85 1006.7
20260508091530 34 176 0.9 0.0 0.00 0.00 0.00 87 1006.6
20260508090049 34 176 0.9 0.0 0.00 0.00 0.00 87 1006.9
20260508084503 35 165 0.9 0.0 0.00 0.00 0.00 86 1006.8
20260508083052 35 167 0.9 0.0 0.00 0.00 0.00 86 1006.4
20260508081517 36 167 0.9 0.0 0.00 0.00 0.00 86 1006.3
20260508080038 36 167 0.9 0.0 0.00 0.00 0.00 88 1006.9
20260508074518 36 196 0.9 0.0 0.00 0.00 0.00 87 1007.5
20260508073108 36 189 0.9 0.0 0.00 0.00 0.00 88 1007.1
20260508071541 36 155 0.0 0.0 0.00 0.00 0.00 87 1007.6
20260508070059 36 158 0.9 0.0 0.00 0.00 0.00 86 1007.6
20260508064551 36 154 0.9 0.0 0.00 0.00 0.00 87 1007.6
20260508063111 36 175 0.0 0.0 0.00 0.00 0.00 86 1007.6
20260508061549 37 160 0.9 0.0 0.00 0.00 0.00 86 1007.6
20260508060049 37 138 0.0 0.0 0.00 0.00 0.00 85 1007.8
20260508054519 38 124 0.9 0.0 0.00 0.00 0.00 84 1007.3
20260508053052 38 121 0.9 0.0 0.00 0.00 0.00 82 1007.7
20260508051525 39 145 0.9 0.0 0.00 0.00 0.00 82 1007.8
20260508050036 40 106 0.9 0.0 0.00 0.00 0.01 79 1009.3